DW8427 Weather Reports


time (UTC)temp
C
wind
direction
speed
KPH
gust
KPH
rain 1hr
cm
rain 24hr
cm
rain mn
cm
humidity
%
barometer
mb
20260904000108 22 303 1.6 9.7 0.00 0.00 0.00 64 1011.3
20260903234543 22 311 0.0 4.8 0.00 0.00 0.00 64 1011.3
20260903233100 22 252 4.8 14.5 0.00 0.00 0.00 63 1011.4
20260903231540 22 281 1.6 16.1 0.00 0.00 0.00 63 1011.5
20260903230055 23 163 0.0 4.8 0.00 0.00 0.00 59 1011.4
20260903224543 23 131 0.0 8.0 0.00 0.00 0.00 60 1011.5
20260903223058 23 115 0.0 6.4 0.00 0.00 0.00 60 1011.9
20260903221533 23 106 1.6 11.3 0.00 0.00 0.00 59 1012.1
20260903220030 23 11 1.6 8.0 0.00 0.00 0.00 59 1012.4
20260903214528 23 90 4.8 14.5 0.00 0.00 0.00 60 1012.4
20260903213040 23 288 3.2 17.7 0.00 0.00 0.00 60 1012.6
20260903211527 23 126 1.6 9.7 0.00 0.00 0.00 59 1012.7
20260903210024 23 46 0.0 11.3 0.00 0.00 0.00 61 1012.7
20260903204523 23 270 4.8 17.7 0.00 0.00 0.00 59 1012.8
20260903203029 23 351 0.0 8.0 0.00 0.00 0.00 59 1012.7
20260903201522 23 233 3.2 14.5 0.00 0.00 0.00 59 1012.8
20260903200019 24 259 0.0 9.7 0.00 0.00 0.00 58 1013.0
20260903194533 25 49 0.0 4.8 0.00 0.00 0.00 57 1013.1
20260903193017 24 115 0.0 4.8 0.00 0.00 0.00 59 1013.3
20260903191510 23 138 0.0 8.0 0.00 0.00 0.00 62 1013.5
20260903190007 23 288 0.0 11.3 0.00 0.00 0.00 62 1013.8
20260903184505 22 75 1.6 8.0 0.00 0.00 0.00 63 1014.0
20260903183003 22 132 1.6 8.0 0.00 0.00 0.00 64 1014.1
20260903181559 21 169 1.6 6.4 0.00 0.00 0.00 66 1014.3
20260903180057 21 135 3.2 8.0 0.00 0.00 0.00 67 1014.3
20260903174553 19 106 3.2 8.0 0.00 0.00 0.00 69 1014.5
20260903173050 18 117 0.0 11.3 0.00 0.00 0.00 71 1014.5
20260903171546 18 158 1.6 6.4 0.00 0.00 0.00 72 1014.7
20260903170043 18 100 3.2 11.3 0.00 0.00 0.00 73 1014.7
20260903164541 17 130 3.2 9.7 0.00 0.00 0.00 73 1014.6
20260903163042 17 117 3.2 6.4 0.00 0.00 0.00 74 1014.7
20260903161538 17 151 4.8 11.3 0.00 0.00 0.00 75 1014.9
20260903160043 17 135 3.2 8.0 0.00 0.00 0.00 75 1015.0
20260903154538 17 140 3.2 9.7 0.00 0.00 0.00 76 1015.0
20260903153036 16 94 1.6 8.0 0.00 0.00 0.00 77 1015.2
20260903151534 16 108 3.2 11.3 0.00 0.00 0.00 78 1015.1
20260903150044 15 91 4.8 12.9 0.00 0.00 0.00 79 1015.0
20260903144538 15 79 4.8 9.7 0.00 0.00 0.00 79 1015.0
20260903143032 15 98 1.6 9.7 0.00 0.00 0.00 79 1015.0
20260903141531 15 108 3.2 9.7 0.00 0.00 0.00 80 1014.8
20260903140035 15 127 3.2 9.7 0.00 0.00 0.00 79 1014.7
20260903134537 15 99 1.6 6.4 0.00 0.00 0.00 79 1014.7
20260903133032 15 123 4.8 11.3 0.00 0.00 0.00 79 1014.7
20260903131526 15 89 3.2 9.7 0.00 0.00 0.00 78 1014.7
20260903130024 15 122 3.2 9.7 0.00 0.00 0.00 79 1014.8
20260903124524 15 99 3.2 8.0 0.00 0.00 0.00 79 1014.8
20260903123022 15 129 3.2 12.9 0.00 0.00 0.00 78 1014.8
20260903121543 15 123 3.2 12.9 0.00 0.00 0.00 78 1014.8
20260903120019 15 105 1.6 8.0 0.00 0.00 0.00 78 1014.9
20260903114518 15 105 3.2 8.0 0.00 0.00 0.00 78 1015.0
20260903113017 15 122 3.2 9.7 0.00 0.00 0.00 78 1015.2
20260903111514 15 89 1.6 9.7 0.00 0.00 0.00 78 1015.2
20260903110012 15 100 3.2 9.7 0.00 0.00 0.00 78 1015.2
20260903104512 15 143 4.8 11.3 0.00 0.00 0.00 79 1015.2
20260903103011 15 136 1.6 8.0 0.00 0.00 0.00 79 1015.2
20260903101509 15 124 1.6 9.7 0.00 0.00 0.00 78 1015.2
20260903100019 15 126 3.2 12.9 0.00 0.00 0.00 79 1015.2
20260903094506 15 131 3.2 11.3 0.00 0.00 0.00 78 1015.3
20260903093006 15 139 4.8 11.3 0.00 0.00 0.00 78 1015.3
20260903091503 15 103 3.2 9.7 0.00 0.00 0.00 77 1015.4
20260903090002 15 88 4.8 14.5 0.00 0.00 0.00 76 1015.5
20260903084603 15 97 3.2 11.3 0.00 0.00 0.00 74 1015.5
20260903083056 15 86 3.2 9.7 0.00 0.00 0.00 74 1015.4
20260903081554 16 142 3.2 9.7 0.00 0.00 0.00 74 1015.4
20260903080050 16 100 3.2 9.7 0.00 0.00 0.00 72 1015.4
20260903074548 16 86 0.0 11.3 0.00 0.00 0.00 71 1015.4
20260903073054 16 115 6.4 11.3 0.00 0.00 0.00 70 1015.4
20260903071543 17 123 0.0 9.7 0.00 0.00 0.00 69 1015.3
20260903070040 17 78 1.6 8.0 0.00 0.00 0.00 67 1015.3
20260903064539 17 89 1.6 8.0 0.00 0.00 0.00 66 1015.3
20260903063043 18 115 0.0 4.8 0.00 0.00 0.00 65 1015.3
20260903061540 18 105 0.0 4.8 0.00 0.00 0.00 64 1015.3
20260903060049 18 130 0.0 4.8 0.00 0.00 0.00 63 1015.4
20260903054537 18 115 0.0 4.8 0.00 0.00 0.00 63 1015.4
20260903053043 18 110 0.0 0.0 0.00 0.00 0.00 63 1015.4
20260903051539 19 105 0.0 0.0 0.00 0.00 0.00 61 1015.3
20260903050042 19 113 0.0 3.2 0.00 0.00 0.00 60 1015.4
20260903044539 20 122 0.0 0.0 0.00 0.00 0.00 60 1015.4
20260903043036 20 37 0.0 0.0 0.00 0.00 0.00 61 1015.3
20260903041537 19 37 0.0 0.0 0.00 0.00 0.00 62 1015.2
20260903040034 20 37 0.0 0.0 0.00 0.00 0.00 60 1015.0
20260903034534 20 37 0.0 0.0 0.00 0.00 0.00 60 1014.7
20260903033033 20 37 0.0 0.0 0.00 0.00 0.00 59 1014.5
20260903031540 21 37 0.0 0.0 0.00 0.00 0.00 58 1014.4
20260903030043 21 34 0.0 1.6 0.00 0.00 0.00 58 1014.3
20260903024530 22 296 0.0 1.6 0.00 0.00 0.00 58 1014.4
20260903023032 22 1 0.0 6.4 0.00 0.00 0.00 57 1014.4
20260903021540 23 338 0.0 0.0 0.00 0.00 0.00 55 1014.4
20260903020035 23 15 0.0 1.6 0.00 0.00 0.00 55 1014.4
20260903014527 24 302 0.0 1.6 0.00 0.00 0.00 54 1014.5
20260903013027 25 115 0.0 4.8 0.00 0.00 0.00 52 1014.6
20260903011533 25 327 0.0 4.8 0.00 0.00 0.00 52 1014.6
20260903010031 25 77 0.0 6.4 0.00 0.00 0.00 51 1014.6
20260903004529 25 301 0.0 8.0 0.00 0.00 0.00 51 1014.7
20260903003024 25 338 0.0 12.9 0.00 0.00 0.00 52 1014.8
20260903001523 25 256 0.0 9.7 0.00 0.00 0.00 51 1014.9